| time (UTC) | temp F | wind direction | speed MPH | gust MPH | rain 1hr in | rain 24hr in | rain mn in | humidity % | barometer mb |
| 20260503222024 | 57 | 255 | 5.0 | 6.0 | 0.00 | 0.00 | 0.00 | 45 | 1009.9 |
| 20260503221522 | 57 | 224 | 9.0 | 13.0 | 0.00 | 0.00 | 0.00 | 44 | 1010.1 |
| 20260503221019 | 57 | 172 | 4.0 | 7.0 | 0.00 | 0.00 | 0.00 | 44 | 1010.1 |
| 20260503220515 | 58 | 239 | 4.0 | 5.0 | 0.00 | 0.00 | 0.00 | 45 | 1010.1 |
| 20260503220012 | 58 | 240 | 8.0 | 11.0 | 0.00 | 0.00 | 0.00 | 44 | 1010.0 |
| 20260503215509 | 58 | 264 | 5.0 | 6.0 | 0.00 | 0.00 | 0.00 | 44 | 1009.8 |
| 20260503215006 | 59 | 236 | 3.0 | 3.0 | 0.00 | 0.00 | 0.00 | 46 | 1009.9 |
| 20260503214504 | 59 | 232 | 3.0 | 3.0 | 0.00 | 0.00 | 0.00 | 44 | 1010.1 |
| 20260503214000 | 58 | 249 | 5.0 | 6.0 | 0.00 | 0.00 | 0.00 | 43 | 1009.9 |
| 20260503213459 | 59 | 218 | 5.0 | 5.0 | 0.00 | 0.00 | 0.00 | 43 | 1010.1 |
| 20260503212955 | 58 | 225 | 6.0 | 7.0 | 0.00 | 0.00 | 0.00 | 42 | 1010.1 |
| 20260503212453 | 59 | 214 | 6.0 | 7.0 | 0.00 | 0.00 | 0.00 | 43 | 1010.0 |
| 20260503211950 | 58 | 267 | 6.0 | 8.0 | 0.00 | 0.00 | 0.00 | 42 | 1010.1 |
| 20260503211447 | 58 | 247 | 5.0 | 8.0 | 0.00 | 0.00 | 0.00 | 43 | 1010.1 |
| 20260503210942 | 58 | 219 | 11.0 | 15.0 | 0.00 | 0.00 | 0.00 | 43 | 1010.1 |
| 20260503210440 | 59 | 258 | 8.0 | 10.0 | 0.00 | 0.00 | 0.00 | 43 | 1009.9 |
| 20260503205940 | 59 | 234 | 9.0 | 10.0 | 0.00 | 0.00 | 0.00 | 42 | 1010.1 |
| 20260503205437 | 59 | 289 | 11.0 | 13.0 | 0.00 | 0.00 | 0.00 | 40 | 1010.2 |
| 20260503204933 | 58 | 226 | 3.0 | 5.0 | 0.00 | 0.00 | 0.00 | 43 | 1010.1 |
| 20260503204430 | 58 | 249 | 4.0 | 5.0 | 0.00 | 0.00 | 0.00 | 45 | 1010.2 |
| 20260503203927 | 59 | 222 | 5.0 | 7.0 | 0.00 | 0.00 | 0.00 | 43 | 1010.0 |
| 20260503203425 | 58 | 211 | 5.0 | 7.0 | 0.00 | 0.00 | 0.00 | 42 | 1010.2 |
| 20260503202921 | 59 | 237 | 9.0 | 10.0 | 0.00 | 0.00 | 0.00 | 41 | 1010.3 |
| 20260503202420 | 59 | 249 | 3.0 | 5.0 | 0.00 | 0.00 | 0.00 | 41 | 1010.1 |
| 20260503201918 | 60 | 268 | 5.0 | 6.0 | 0.00 | 0.00 | 0.00 | 41 | 1010.5 |
| 20260503201415 | 60 | 254 | 6.0 | 13.0 | 0.00 | 0.00 | 0.00 | 41 | 1010.5 |
| 20260503200912 | 59 | 216 | 1.0 | 1.0 | 0.00 | 0.00 | 0.00 | 41 | 1010.4 |
| 20260503200408 | 58 | 235 | 4.0 | 6.0 | 0.00 | 0.00 | 0.00 | 42 | 1010.2 |
| 20260503195905 | 58 | 232 | 11.0 | 14.0 | 0.00 | 0.00 | 0.00 | 42 | 1010.4 |
| 20260503195402 | 60 | 258 | 7.0 | 10.0 | 0.00 | 0.00 | 0.00 | 41 | 1010.5 |
| 20260503194859 | 59 | 300 | 8.0 | 11.0 | 0.00 | 0.00 | 0.00 | 41 | 1010.7 |
| 20260503194355 | 59 | 228 | 5.0 | 7.0 | 0.00 | 0.00 | 0.00 | 41 | 1011.1 |
| 20260503193851 | 59 | 236 | 5.0 | 7.0 | 0.00 | 0.00 | 0.00 | 41 | 1011.0 |
| 20260503193347 | 59 | 230 | 5.0 | 7.0 | 0.00 | 0.00 | 0.00 | 42 | 1011.1 |
| 20260503192843 | 59 | 236 | 9.0 | 10.0 | 0.00 | 0.00 | 0.00 | 43 | 1011.1 |
| 20260503192339 | 59 | 221 | 7.0 | 8.0 | 0.00 | 0.00 | 0.00 | 43 | 1011.3 |
| 20260503191835 | 58 | 218 | 4.0 | 6.0 | 0.00 | 0.00 | 0.00 | 45 | 1011.2 |
| 20260503191332 | 59 | 263 | 7.0 | 13.0 | 0.00 | 0.00 | 0.00 | 43 | 1011.3 |
| 20260503190829 | 59 | 253 | 5.0 | 6.0 | 0.00 | 0.00 | 0.00 | 45 | 1011.4 |
| 20260503190326 | 57 | 223 | 2.0 | 5.0 | 0.00 | 0.00 | 0.00 | 44 | 1011.6 |
| 20260503185824 | 58 | 264 | 8.0 | 10.0 | 0.00 | 0.00 | 0.00 | 43 | 1011.8 |
| 20260503185319 | 58 | 234 | 6.0 | 7.0 | 0.00 | 0.00 | 0.00 | 43 | 1011.8 |
| 20260503184814 | 58 | 250 | 9.0 | 10.0 | 0.00 | 0.00 | 0.00 | 42 | 1011.8 |
| 20260503184310 | 58 | 261 | 5.0 | 7.0 | 0.00 | 0.00 | 0.00 | 43 | 1011.6 |
| 20260503183806 | 59 | 231 | 3.0 | 5.0 | 0.00 | 0.00 | 0.00 | 43 | 1012.0 |
| 20260503183304 | 58 | 237 | 9.0 | 13.0 | 0.00 | 0.00 | 0.00 | 38 | 1012.1 |
| 20260503182801 | 58 | 233 | 6.0 | 7.0 | 0.00 | 0.00 | 0.00 | 44 | 1012.0 |
| 20260503182300 | 59 | 228 | 5.0 | 7.0 | 0.00 | 0.00 | 0.00 | 42 | 1012.1 |
| 20260503181756 | 56 | 251 | 8.0 | 14.0 | 0.00 | 0.00 | 0.00 | 44 | 1011.9 |
| 20260503181253 | 57 | 217 | 7.0 | 8.0 | 0.00 | 0.00 | 0.00 | 43 | 1012.2 |
| 20260503180749 | 58 | 256 | 6.0 | 7.0 | 0.00 | 0.00 | 0.00 | 42 | 1012.2 |
| 20260503180248 | 58 | 213 | 4.0 | 6.0 | 0.00 | 0.00 | 0.00 | 43 | 1012.4 |
| 20260503175744 | 57 | 240 | 4.0 | 5.0 | 0.00 | 0.00 | 0.00 | 44 | 1012.3 |
| 20260503175242 | 57 | 243 | 12.0 | 16.0 | 0.00 | 0.00 | 0.00 | 42 | 1012.2 |
| 20260503174738 | 58 | 267 | 8.0 | 10.0 | 0.00 | 0.00 | 0.00 | 45 | 1012.6 |
| 20260503174237 | 57 | 224 | 11.0 | 14.0 | 0.00 | 0.00 | 0.00 | 45 | 1012.4 |
| 20260503173736 | 57 | 206 | 5.0 | 8.0 | 0.00 | 0.00 | 0.00 | 47 | 1012.3 |
| 20260503173232 | 56 | 228 | 5.0 | 7.0 | 0.00 | 0.00 | 0.00 | 48 | 1012.5 |
| 20260503172729 | 57 | 282 | 7.0 | 9.0 | 0.00 | 0.00 | 0.00 | 47 | 1012.5 |
| 20260503172227 | 56 | 251 | 4.0 | 5.0 | 0.00 | 0.00 | 0.00 | 51 | 1012.7 |
| 20260503171723 | 55 | 210 | 7.0 | 9.0 | 0.00 | 0.00 | 0.00 | 49 | 1012.8 |
| 20260503171220 | 56 | 239 | 7.0 | 9.0 | 0.00 | 0.00 | 0.00 | 48 | 1012.9 |
| 20260503170717 | 56 | 201 | 8.0 | 9.0 | 0.00 | 0.00 | 0.00 | 48 | 1012.7 |
| 20260503170214 | 55 | 221 | 5.0 | 6.0 | 0.00 | 0.00 | 0.00 | 51 | 1013.0 |
| 20260503160136 | 54 | 233 | 6.0 | 7.0 | 0.00 | 0.00 | 0.00 | 48 | 1013.5 |
| 20260503150606 | 52 | 225 | 6.0 | 7.0 | 0.00 | 0.00 | 0.00 | 48 | 1013.8 |
| 20260503130955 | 46 | 232 | 3.0 | 3.0 | 0.00 | 0.00 | 0.00 | 52 | 1014.4 |
| 20260503130453 | 46 | 209 | 3.0 | 3.0 | 0.00 | 0.00 | 0.00 | 53 | 1014.6 |
| 20260503110349 | 33 | 206 | 0.0 | 1.0 | 0.00 | 0.00 | 0.00 | 87 | 1013.8 |
| 20260503090241 | 33 | 210 | 0.0 | 0.0 | 0.00 | 0.00 | 0.00 | 91 | 1013.7 |
| 20260503081209 | 34 | 210 | 0.0 | 0.0 | 0.00 | 0.00 | 0.00 | 89 | 1013.8 |
| 20260503080704 | 34 | 210 | 0.0 | 0.0 | 0.00 | 0.00 | 0.00 | 89 | 1013.9 |
| 20260503080201 | 34 | 210 | 0.0 | 0.0 | 0.00 | 0.00 | 0.00 | 88 | 1014.0 |
| 20260503072638 | 35 | 209 | 0.0 | 1.0 | 0.00 | 0.00 | 0.00 | 89 | 1014.0 |
| 20260503072135 | 35 | 209 | 1.0 | 1.0 | 0.00 | 0.00 | 0.00 | 89 | 1013.7 |
| 20260503071631 | 35 | 210 | 1.0 | 1.0 | 0.00 | 0.00 | 0.00 | 90 | 1013.7 |
| 20260503071128 | 35 | 211 | 0.0 | 0.0 | 0.00 | 0.00 | 0.00 | 90 | 1013.8 |
| 20260503070625 | 35 | 211 | 1.0 | 1.0 | 0.00 | 0.00 | 0.00 | 90 | 1013.7 |
| 20260503070124 | 35 | 211 | 0.0 | 1.0 | 0.00 | 0.00 | 0.00 | 90 | 1013.9 |
| 20260503055044 | 36 | 220 | 0.0 | 0.0 | 0.00 | 0.00 | 0.00 | 88 | 1013.9 |
| 20260503054540 | 36 | 221 | 0.0 | 0.0 | 0.00 | 0.00 | 0.00 | 88 | 1013.9 |
| 20260503054037 | 36 | 221 | 0.0 | 0.0 | 0.00 | 0.00 | 0.00 | 87 | 1014.1 |
| 20260503053535 | 36 | 220 | 0.0 | 1.0 | 0.00 | 0.00 | 0.00 | 87 | 1014.1 |
| 20260503053032 | 36 | 220 | 1.0 | 1.0 | 0.00 | 0.00 | 0.00 | 87 | 1014.2 |
| 20260503052529 | 36 | 221 | 0.0 | 0.0 | 0.00 | 0.00 | 0.00 | 87 | 1014.2 |
| 20260503052025 | 36 | 221 | 0.0 | 0.0 | 0.00 | 0.00 | 0.00 | 87 | 1014.0 |
| 20260503051521 | 36 | 221 | 0.0 | 0.0 | 0.00 | 0.00 | 0.00 | 86 | 1014.3 |
| 20260503051019 | 36 | 221 | 0.0 | 0.0 | 0.00 | 0.00 | 0.00 | 85 | 1014.2 |
| 20260503050514 | 37 | 221 | 0.0 | 0.0 | 0.00 | 0.00 | 0.00 | 85 | 1014.1 |
| 20260503050012 | 37 | 221 | 0.0 | 1.0 | 0.00 | 0.00 | 0.00 | 85 | 1014.0 |
| 20260503045509 | 37 | 221 | 0.0 | 1.0 | 0.00 | 0.00 | 0.00 | 84 | 1014.1 |
| 20260503045006 | 37 | 221 | 0.0 | 0.0 | 0.00 | 0.00 | 0.00 | 84 | 1014.1 |
| 20260503044503 | 37 | 221 | 0.0 | 0.0 | 0.00 | 0.00 | 0.00 | 84 | 1014.1 |
| 20260503044001 | 38 | 221 | 0.0 | 0.0 | 0.00 | 0.00 | 0.00 | 83 | 1014.2 |
| 20260503043456 | 38 | 221 | 0.0 | 0.0 | 0.00 | 0.00 | 0.00 | 82 | 1014.1 |
| 20260503042953 | 38 | 221 | 0.0 | 0.0 | 0.00 | 0.00 | 0.00 | 82 | 1014.2 |
| 20260503042450 | 39 | 221 | 0.0 | 1.0 | 0.00 | 0.00 | 0.00 | 82 | 1014.2 |
| 20260503041946 | 39 | 222 | 0.0 | 1.0 | 0.00 | 0.00 | 0.00 | 82 | 1014.4 |
| 20260503041443 | 39 | 222 | 0.0 | 1.0 | 0.00 | 0.00 | 0.00 | 81 | 1014.3 |
| 20260503040941 | 39 | 218 | 2.0 | 2.0 | 0.00 | 0.00 | 0.00 | 81 | 1014.6 |
| 20260503040438 | 39 | 215 | 1.0 | 1.0 | 0.00 | 0.00 | 0.00 | 82 | 1014.4 |
| 20260503035935 | 39 | 215 | 1.0 | 1.0 | 0.00 | 0.20 | 0.20 | 82 | 1014.4 |
| 20260503035432 | 39 | 214 | 1.0 | 1.0 | 0.00 | 0.20 | 0.20 | 82 | 1014.4 |
| 20260503034930 | 39 | 213 | 0.0 | 1.0 | 0.00 | 0.20 | 0.20 | 82 | 1014.4 |
| 20260503034427 | 39 | 213 | 1.0 | 1.0 | 0.00 | 0.20 | 0.20 | 81 | 1014.4 |
| 20260503033924 | 39 | 213 | 1.0 | 1.0 | 0.00 | 0.20 | 0.20 | 82 | 1014.6 |
| 20260503033421 | 39 | 213 | 0.0 | 0.0 | 0.00 | 0.20 | 0.20 | 82 | 1014.4 |
| 20260503032919 | 39 | 212 | 1.0 | 1.0 | 0.00 | 0.20 | 0.20 | 82 | 1014.6 |
| 20260503032418 | 39 | 226 | 1.0 | 1.0 | 0.00 | 0.20 | 0.20 | 81 | 1014.4 |
| 20260503031915 | 39 | 223 | 1.0 | 1.0 | 0.00 | 0.20 | 0.20 | 81 | 1014.7 |
| 20260503031412 | 39 | 224 | 2.0 | 2.0 | 0.00 | 0.20 | 0.20 | 82 | 1014.4 |
| 20260503030909 | 39 | 210 | 1.0 | 1.0 | 0.00 | 0.20 | 0.20 | 81 | 1014.4 |
| 20260503030405 | 39 | 220 | 1.0 | 1.0 | 0.00 | 0.20 | 0.20 | 82 | 1014.3 |
| 20260503025902 | 39 | 215 | 0.0 | 0.0 | 0.00 | 0.20 | 0.20 | 82 | 1014.6 |
| 20260503025359 | 39 | 214 | 1.0 | 1.0 | 0.00 | 0.20 | 0.20 | 80 | 1014.7 |
| 20260503024856 | 39 | 214 | 0.0 | 1.0 | 0.00 | 0.20 | 0.20 | 80 | 1014.6 |
| 20260503024353 | 40 | 214 | 1.0 | 1.0 | 0.00 | 0.20 | 0.20 | 80 | 1014.8 |
| 20260503023850 | 40 | 213 | 0.0 | 1.0 | 0.00 | 0.20 | 0.20 | 80 | 1014.8 |
| 20260503023347 | 40 | 211 | 2.0 | 2.0 | 0.00 | 0.20 | 0.20 | 78 | 1015.1 |
| 20260503022843 | 40 | 228 | 0.0 | 1.0 | 0.00 | 0.20 | 0.20 | 79 | 1015.1 |
| 20260503022338 | 40 | 233 | 1.0 | 1.0 | 0.00 | 0.20 | 0.20 | 79 | 1014.7 |
| 20260503021834 | 40 | 233 | 0.0 | 1.0 | 0.00 | 0.20 | 0.20 | 78 | 1014.7 |
| 20260503021331 | 40 | 233 | 0.0 | 1.0 | 0.00 | 0.20 | 0.20 | 77 | 1014.8 |
| 20260503020828 | 40 | 235 | 1.0 | 1.0 | 0.00 | 0.20 | 0.20 | 77 | 1014.9 |
| 20260503020326 | 40 | 243 | 2.0 | 2.0 | 0.00 | 0.20 | 0.20 | 76 | 1014.8 |
| 20260503015822 | 40 | 256 | 2.0 | 2.0 | 0.00 | 0.20 | 0.20 | 76 | 1014.4 |
| 20260503015319 | 40 | 258 | 1.0 | 1.0 | 0.00 | 0.20 | 0.20 | 77 | 1014.6 |
| 20260503014815 | 40 | 259 | 2.0 | 2.0 | 0.00 | 0.20 | 0.20 | 77 | 1014.8 |
| 20260503014313 | 40 | 266 | 1.0 | 1.0 | 0.00 | 0.20 | 0.20 | 78 | 1014.8 |
| 20260503013810 | 40 | 277 | 1.0 | 1.0 | 0.00 | 0.20 | 0.20 | 78 | 1014.6 |
| 20260503013308 | 40 | 277 | 1.0 | 1.0 | 0.00 | 0.20 | 0.20 | 76 | 1014.7 |
| 20260503012804 | 40 | 278 | 1.0 | 1.0 | 0.00 | 0.20 | 0.20 | 78 | 1014.7 |
| 20260503012305 | 40 | 278 | 0.0 | 0.0 | 0.00 | 0.20 | 0.20 | 77 | 1014.6 |
| 20260503011758 | 40 | 278 | 1.0 | 1.0 | 0.00 | 0.20 | 0.20 | 78 | 1014.7 |
| 20260503011255 | 40 | 278 | 0.0 | 0.0 | 0.00 | 0.20 | 0.20 | 76 | 1014.4 |
| 20260503010752 | 40 | 278 | 1.0 | 1.0 | 0.00 | 0.20 | 0.20 | 76 | 1014.8 |
| 20260503010249 | 40 | 279 | 0.0 | 0.0 | 0.00 | 0.20 | 0.20 | 77 | 1014.4 |
| 20260503005746 | 40 | 279 | 0.0 | 0.0 | 0.00 | 0.20 | 0.20 | 74 | 1014.6 |
| 20260503005243 | 41 | 279 | 0.0 | 0.0 | 0.00 | 0.20 | 0.20 | 72 | 1014.6 |
| 20260503004739 | 41 | 279 | 1.0 | 1.0 | 0.00 | 0.20 | 0.20 | 71 | 1014.4 |
| 20260503004237 | 41 | 279 | 1.0 | 1.0 | 0.00 | 0.20 | 0.20 | 68 | 1014.3 |
| 20260503003735 | 41 | 279 | 0.0 | 1.0 | 0.00 | 0.20 | 0.20 | 67 | 1014.3 |
| 20260503003232 | 41 | 281 | 0.0 | 1.0 | 0.00 | 0.20 | 0.20 | 67 | 1014.3 |
| 20260503002728 | 41 | 286 | 1.0 | 1.0 | 0.00 | 0.20 | 0.20 | 65 | 1014.2 |
| 20260503002225 | 42 | 290 | 1.0 | 1.0 | 0.00 | 0.20 | 0.20 | 64 | 1014.7 |
| 20260503001721 | 42 | 289 | 1.0 | 1.0 | 0.00 | 0.20 | 0.20 | 64 | 1014.4 |
| 20260503001218 | 42 | 311 | 0.0 | 1.0 | 0.00 | 0.20 | 0.20 | 64 | 1014.2 |
| 20260503000716 | 42 | 311 | 1.0 | 1.0 | 0.00 | 0.20 | 0.20 | 62 | 1014.2 |
| 20260503000213 | 42 | 357 | 0.0 | 1.0 | 0.00 | 0.20 | 0.20 | 64 | 1014.7 |
| 20260502235710 | 42 | 357 | 1.0 | 1.0 | 0.00 | 0.20 | 0.20 | 63 | 1014.3 |
| 20260502235208 | 42 | 357 | 1.0 | 1.0 | 0.00 | 0.20 | 0.20 | 62 | 1014.2 |
| 20260502234703 | 43 | 357 | 1.0 | 1.0 | 0.00 | 0.20 | 0.20 | 64 | 1014.4 |
| 20260502234201 | 42 | 357 | 0.0 | 1.0 | 0.00 | 0.20 | 0.20 | 65 | 1014.2 |
| 20260502233656 | 42 | 357 | 0.0 | 0.0 | 0.00 | 0.20 | 0.20 | 65 | 1014.2 |
| 20260502233153 | 42 | 357 | 0.0 | 1.0 | 0.00 | 0.20 | 0.20 | 62 | 1014.2 |
| 20260502232649 | 42 | 357 | 1.0 | 1.0 | 0.00 | 0.20 | 0.20 | 60 | 1014.1 |
| 20260502232147 | 42 | 333 | 1.0 | 1.0 | 0.00 | 0.20 | 0.20 | 60 | 1014.2 |
| 20260502231643 | 42 | 354 | 1.0 | 1.0 | 0.00 | 0.20 | 0.20 | 61 | 1014.3 |
| 20260502231141 | 42 | 332 | 1.0 | 2.0 | 0.00 | 0.20 | 0.20 | 60 | 1014.4 |
| 20260502230640 | 42 | 13 | 2.0 | 2.0 | 0.00 | 0.20 | 0.20 | 64 | 1014.4 |
| 20260502230138 | 42 | 9 | 3.0 | 3.0 | 0.00 | 0.20 | 0.20 | 60 | 1014.3 |
| 20260502225633 | 42 | 346 | 1.0 | 1.0 | 0.00 | 0.20 | 0.20 | 60 | 1014.3 |
| 20260502225131 | 43 | 310 | 2.0 | 2.0 | 0.00 | 0.20 | 0.20 | 60 | 1014.6 |
| 20260502224627 | 43 | 330 | 1.0 | 1.0 | 0.00 | 0.20 | 0.20 | 62 | 1014.3 |
| 20260502224123 | 42 | 3 | 3.0 | 5.0 | 0.00 | 0.20 | 0.20 | 60 | 1014.3 |
| 20260502223621 | 42 | 9 | 4.0 | 5.0 | 0.00 | 0.20 | 0.20 | 59 | 1014.3 |
| 20260502223120 | 42 | 333 | 1.0 | 2.0 | 0.00 | 0.20 | 0.20 | 60 | 1014.4 |
| 20260502222617 | 42 | 33 | 4.0 | 6.0 | 0.00 | 0.20 | 0.20 | 59 | 1014.2 |